Location: ????????
(55.6189°N, 38.3031°E)
Time: 04:37:00
(UTC+00:00)

Cosmos 1934 Rocket - Pass Details

Date: 15 November 2019
Orbit: 938 x 999 km, 83.0° (Epoch: 09 December)

Event Time Altitude Azimuth Distance (km) Brightness Sun altitude
Exits shadow 02:03:05 31° 208° (SSW) 1,660 4.9 -24.7°
Maximum altitude 02:06:16 70° 284° (WNW) 1,059 3.9 -24.2°
Drops below altitude 10° 02:12:40 10° 9° (N) 2,783 6.5 -23.3°
Sets 02:15:14 0° 12° (NNE) 3,737 7.2 -23.0°
